Location: Владивосток
(43.1151°N, 131.8856°E)
Time: 06:57:39
(UTC+10:00)

BlueWalker 3 - Pass Details

Date: 02 December 2022
Orbit: 499 x 517 km, 53.2° (Epoch: 04 February)

Event Time Altitude Azimuth Distance (km) Brightness Sun altitude
Rises 18:08:05 0° 278° (W) 2,629 6.7 -5.6°
Reaches altitude 10° 18:10:39 10° 294° (WNW) 1,740 5.3 -6.1°
Maximum altitude 18:13:47 22° 346° (NNW) 1,156 3.7 -6.6°
Drops below altitude 10° 18:16:54 10° 39° (NE) 1,732 4.1 -7.1°
Enters shadow 18:17:32 - 44° (NE) 1,933 4.3 -7.2°
Exits shadow 18:53:01 -70° 97° (E) 12,489 8.9 -13.3°
